{"data":{"norad_id":59300,"epoch":"2026-09-21T21:25:28.720128Z","epoch_age_seconds":41931,"freshness":"FRESH","line1":"1 59300U 24056E   26264.89269352 -.00000443  00000+0 -65846-5 0  9994","line2":"2 59300  43.0036 202.4380 0001346 275.6828  84.3870 15.27569234141163","mean_motion":15.27569234,"eccentricity":0.0001346,"inclination_deg":43.0036,"raan_deg":202.438,"arg_perigee_deg":275.6828,"mean_anomaly_deg":84.387,"bstar":-6.5846e-6,"rev_number":14116,"period_min":94.267413086692,"perigee_km":482.15781351835,"apogee_km":484.00485349373,"semimajor_km":6861.218333506,"source":"CELESTRAK","updated_at":"2026-09-22T09:00:48.875625Z"}}